Powrót do katalogu

STARLINK-38189

AktywnyŁącznośćSSO
NORAD 100213·PAYLOAD·🇺🇸 United States

Wystrzelony Aug 4, 2026 z Vandenberg Space Force Base

Loading…

Następne Przeloty (najbliższe 24 godziny)

TLE

ŚwieżeSource: Space-Track

Epoka: Sep 14, 2026, 22:45 UTC

1 A0213U 26177A   26257.94838258  .00024105  00000-0  44299-3 0  9991
2 A0213  97.2836 308.7315 0001506 106.2891 253.8526 15.49223647  6504

Śledź STARLINK-38189 w czasie rzeczywistym z AllMySat

Download on the App Store